Regional Weather Roundup
Issued by NWS

Home | Current Version | Previous Version | Graphics & Text | Print | Product List | Glossary On
Versions: 1 2 3 4 5 6 7 8 9 10 11 12 13 14 15 16 17 18 19 20 21 22 23 24 25 26 27 28 29 30 31 32 33 34 35 36 37 38 39 40 41 42 43 44 45 46 47 48 49 50
938
ASUS43 KMPX 210310
RWRMN
WEATHER ROUNDUP FOR MINNESOTA
NATIONAL WEATHER SERVICE TWIN CITIES/CHANHASSEN MN
1000 PM CDT FRI OCT 20 2017


NOTE: "FAIR" INDICATES FEW OR NO CLOUDS BELOW 12,000 FEET WITH NO
SIGNIFICANT WEATHER AND/OR OBSTRUCTIONS TO VISIBILITY. N/A MEANS
CURRENT SKY AND/OR WEATHER CONDITIONS ARE NOT AVAILABLE.

MNZ060>063-068>070-210400-
   Twin Cities Metro

CITY           SKY/WX    TMP DP  RH WIND       PRES   REMARKS
TWIN CITIES    PTCLDY    68  50  52 S17       29.73F
ST PAUL        CLEAR     66  49  54 SE14G28   29.74S
CRYSTAL        CLEAR     67  46  47 S16G25    29.70F
BLAINE         CLEAR     68  48  49 S16G22    29.71F
LAKEVILLE      CLEAR     64  50  59 S15G23    29.73S
EDEN PRAIRIE   MOCLDY    67  49  52 S15G22    29.70F
SOUTH ST PAUL  CLEAR     67  47  49 S14G22    29.73F
LAKE ELMO      FAIR      64  48  55 S21       29.75F
$$
MNZ001>005-007-008-013>017-022>024-027-028-210400-
   Northwest Minnesota

CITY           SKY/WX    TMP DP  RH WIND       PRES   REMARKS
BEMIDJI        MOCLDY    68  49  51 S21G26    29.54S
HALLOCK        PTCLDY    70  54  56 S21G29    29.37S
ROSEAU         MOCLDY    70  54  56 S13G20    29.44S
WARROAD        PTCLDY    64  54  68 S13       29.46S
THIEF RVR FALL CLOUDY    70  53  54 S23G31    29.45S
CROOKSTON      MOCLDY    72  54  53 S26G33    29.42R
FOSSTON        CLOUDY    68  48  49 S25G33    29.49S
DETROIT LAKES  MOCLDY    68  52  56 S20       29.54S
MOORHEAD       PTCLDY    70  54  56 S26G32    29.45S
PARK RAPIDS    MOCLDY    67  50  54 S18G32    29.58R
MAHNOMEN       FAIR      67  52  57 S13G23    29.49S
$$
MNZ006-009>011-018-025>026-210400-
   North Central Minnesota

CITY           SKY/WX    TMP DP  RH WIND       PRES   REMARKS
BAUDETTE       PTCLDY    68  51  54 S16G30    29.50S
FLAG ISLAND    PTCLDY    57  48  72 SE20      29.45S
INTL FALLS     PTCLDY    68  47  46 S8G20     29.57S
WASKISH        MOCLDY    70  50  49 S15G30    29.52S
BIG FORK       PTCLDY    66  46  48 S14G26    29.61S
LONGVILLE      PTCLDY    66  46  48 S17G28    29.62S
GRAND RAPIDS   CLOUDY    65  47  52 S17G24    29.66R
CRANE LAKE     PTCLDY    66  45  45 S12G18    29.65S
ORR            MOCLDY    66  41  39 S14G22    29.62S
COOK           PTCLDY    66  43  42 S13G22    29.66S
WALKER         FAIR      68  49  50 S20G30    29.57F
$$
MNZ012-019>021-037-210400-
   Northeast Minnesota

CITY           SKY/WX    TMP DP  RH WIND       PRES   REMARKS
DULUTH         PTCLDY    65  43  44 S20G26    29.73R
ELY            CLOUDY    64  43  45 S14       29.70S
HIBBING        PTCLDY    65  42  43 S9G22     29.68R
EVELETH        PTCLDY    65  27  23 S12G22    29.71S
DULUTH HARBOR  CLOUDY    66  46  48 S12       29.72S
TWO HARBORS    CLOUDY    55  46  71 CALM      29.73R
SILVER BAY     CLOUDY    48  45  87 CALM      29.74R
GRAND MARAIS     N/A     50  47  89 NE3       29.76R
G MARAIS ARPRT PTCLDY    61  39  44 S8G20     29.79S
$$
MNZ029>031-032-039>041-046>048-054>057-064-210400-
   West Central Minnesota

CITY           SKY/WX    TMP DP  RH WIND       PRES   REMARKS
FERGUS FALLS   CLOUDY    66  54  63 S18G24    29.52S
WHEATON        PTCLDY    66  54  63 SE17      29.51S
MORRIS         PTCLDY    64  55  72 S14       29.54S
ALEXANDRIA     CLOUDY    66  53  63 S18G30    29.60S
ELBOW LAKE     FAIR      65  55  69 SE18G25   29.54S
WADENA         CLOUDY    64  52  63 S18G24    29.58R
GLENWOOD       MOCLDY    66  54  63 S20G28    29.60S
APPLETON       MOCLDY    70  55  60 S14G21    29.55S
BENSON         CLEAR     68  55  64 S17G24    29.58S
ORTONVILLE     CLEAR     68  55  64 N13G20    29.52S
MADISON        MOCLDY    72  57  60 S17G29    29.53F
WILLMAR        FAIR      66  55  68 S14G22    29.62S
$$
MNZ033>034-036-042>043-049>051-058-059-210400-
   Central Minnesota

CITY           SKY/WX    TMP DP  RH WIND       PRES   REMARKS
ST CLOUD       PTCLDY    65  49  56 SE13      29.67R
SAUK CENTRE    FAIR      64  51  63 S15G23    29.62S
PAYNESVILLE    PTCLDY    66  52  60 SE17G23   29.64F
AITKIN         CLEAR     64  46  52 S13G20    29.65S
PINE RIVER     CLEAR     64  46  52 S15G22    29.66R
BRAINERD       CLEAR     65  47  52 S15       29.65S
STAPLES        MOCLDY    66  48  52 S21G28    29.60F
LONG PRAIRIE   FAIR      64  50  59 SE16G26   29.62F
LITTLE FALLS   PTCLDY    66  39  37 S15G22    29.65S
LITCHFIELD     PTCLDY    66  52  59 S9        29.66F
BUFFALO        CLEAR     66  48  52 S14G20    29.70R
MAPLE LAKE     CLEAR     66  51  59 S9G18     29.69S
HUTCHINSON     PTCLDY    66  52  60 S12G17    29.68S
$$
MNZ037-044-045-052-053-210400-
   East Central Minnesota

CITY           SKY/WX    TMP DP  RH WIND       PRES   REMARKS
PRINCETON      CLEAR     68  48  49 S15       29.70R
MORA           CLOUDY    64  46  52 S9        29.72S
CAMBRIDGE      CLEAR     70  50  49 SE15G22   29.71S
RUSH CITY      CLOUDY    65  46  49 S13G20    29.72F
MOOSE LAKE     PTCLDY    64  41  42 S10       29.70R
HINCKLEY       FAIR      64  45  48 S9G16     29.73S
CLOQUET        PTCLDY    66  37  34 S13G18    29.72S
MCGREGOR       PTCLDY    64  45  48 S15       29.68S
$$
MNZ071>073-080-081-089-090-097-098-210400-
   Southwest Minnesota

CITY           SKY/WX    TMP DP  RH WIND       PRES   REMARKS
MONTEVIDEO     PTCLDY    68  55  64 S15G22    29.57S
GRANITE FALLS  PTCLDY    69  57  66 SE20G25   29.60S
CANBY          CLOUDY    70  57  63 S17G26    29.56R
MARSHALL       PTCLDY    69  57  65 S24G33    29.58S
REDWOOD FALLS  CLOUDY    68  53  58 S22G29    29.63S
OLIVIA         CLOUDY    70  55  60 S20G28    29.62F
PIPESTONE      CLOUDY    66  55  68 S20G30    29.60S
WORTHINGTON    CLEAR     64  56  75 S16G24    29.66R
JACKSON        CLEAR     63  54  72 S20G26    29.70R
TRACY          MOCLDY    68  58  70 S17G25    29.62S
SLAYTON        CLOUDY    66  57  72 S14G26    29.64S
$$
MNZ065>067-074>077-082>085-091>093-210400-
   South Central Minnesota

CITY           SKY/WX    TMP DP  RH WIND       PRES   REMARKS
MANKATO        CLOUDY    66  51  58 S17G28    29.71F
NEW ULM        CLOUDY    66  50  55 S18G26    29.67S
ST JAMES       CLOUDY    64  52  63 SE21G29   29.69S
FAIRMONT       CLOUDY    64  53  67 S24       29.70F
GLENCOE        CLEAR     67  50  55 S14G26    29.68R
FARIBAULT      CLEAR     66  50  55 S17G28    29.75S
OWATONNA       CLOUDY    64  50  59 SE17G28   29.76F
WASECA         CLOUDY    64  50  59 S16G26    29.76S
$$
MNZ078>079-086>088-094>096-210400-
   Southeast Minnesota

CITY           SKY/WX    TMP DP  RH WIND       PRES   REMARKS
ROCHESTER      CLOUDY    62  48  60 S22G32    29.82R
RED WING       MOCLDY    68  43  40 S8        29.77S
STANTON        CLEAR     66  49  54 S17G29    29.73F
DODGE CENTER   PTCLDY    63  46  55 S23G30    29.79S
WINONA         CLOUDY    70  43  37 S8        29.83R
AUSTIN         CLEAR     63  48  59 S15       29.81S
PRESTON        CLOUDY    63  45  51 S18G25    29.85R
$$
ABBREVIATIONS USED IN REMARKS
   TC - TEMPERATURES IN CELSIUS
  WCI - WIND CHILL INDEX
   HX - HEAT INDEX
  VSB - VISIBILITY
$$




USA.gov is the U.S. government's official web portal to all federal, state and local government web resources and services.